This is the latest recevied weather packets stored in our database for station/object 9W2IJB-3. If no packets are shown the sender has not sent any weather packets the latest 10 day(s).
| Time | Temp. | Humidity | Pressure | Rain* | Wind** | Luminosity | Snow |
|---|---|---|---|---|---|---|---|
| 1777617480 | 25.56° C | 75% | 1020.6 hPa | - | - | - | - |
| 1777616280 | 25° C | 75% | 1021.1 hPa | - | - | - | - |
| 1777615080 | 25° C | 74% | 1021.1 hPa | - | - | - | - |
| 1777613880 | 25° C | 73% | 1021.6 hPa | - | - | - | - |
| 1777611481 | 29.44° C | 70% | 1021.4 hPa | - | - | - | - |
| 1777610281 | 30° C | 70% | 1021.8 hPa | - | - | - | - |
| 1777609081 | 29.44° C | 71% | 1022.2 hPa | - | - | - | - |
| 1777607881 | 29.44° C | 70% | 1022.6 hPa | - | - | - | - |
| 1777606681 | 30° C | 69% | 1023.1 hPa | - | - | - | - |
| 1777605480 | 29.44° C | 71% | 1023.1 hPa | - | - | - | - |
| 1777604280 | 28.89° C | 72% | 1023 hPa | - | - | - | - |
| 1777603080 | 28.89° C | 73% | 1023.1 hPa | - | - | - | - |
| 1777601880 | 28.33° C | 73% | 1022.9 hPa | - | - | - | - |
| 1777600680 | 27.78° C | 75% | 1022.9 hPa | - | - | - | - |
| 1777599480 | 27.78° C | 76% | 1022.7 hPa | - | - | - | - |
| 1777598280 | 27.22° C | 77% | 1022.6 hPa | - | - | - | - |
| 1777597080 | 27.22° C | 77% | 1022.5 hPa | - | - | - | - |
| 1777595880 | 26.67° C | 78% | 1022.1 hPa | - | - | - | - |
| 1777594680 | 26.67° C | 78% | 1021.7 hPa | - | - | - | - |
| 1777593480 | 26.67° C | 77% | 1021.7 hPa | - | - | - | - |
| 1777592334 | 26.11° C | 77% | 1021.4 hPa | - | - | - | - |
| 1777592280 | 26.11° C | 77% | 1021.4 hPa | - | - | - | - |
| 1777591080 | 26.11° C | 77% | 1021.5 hPa | - | - | - | - |
| 1777589880 | 26.11° C | 77% | 1021.3 hPa | - | - | - | - |
| 1777588679 | 26.67° C | 77% | 1020.9 hPa | - | - | - | - |
* Rain since midnight (hover to see other rain measurements)
** Current wind speed in m/s (hover to see current wind gust speed)